Dubuque, IA

8:54 PM CST on November 16, 2019 (GMT -0600)
Dubuque Regional

Weather History for KDBQ - October, 2019

Change the Weather History Date:

Monday, October 21, 2019

  Actual Average Record
Temperature  
Mean Temperature 53 °F 48 °F  
Max Temperature 61 °F 58 °F 86 °F (1947)
Min Temperature 45 °F 39 °F 16 °F (1952)
Degree Days  
Heating Degree Days 12 17  
Month to date heating degree days 285 283  
Since 1 July heating degree days 347 461  
Cooling Degree Days 0 0  
Month to date cooling degree days 9 4  
Year to date cooling degree days 679 641  
Growing Degree Days 3 (Base 50)    
Moisture  
Dew Point 47 °F    
Average Humidity 81    
Maximum Humidity 97    
Minimum Humidity 51    
Precipitation  
Precipitation 0.42 in 0.09 in 2.24 in (1965)
Month to date precipitation 5.98 1.80  
Year to date precipitation 50.42 31.24  
Snow  
Snow 0.00 in 0.00 in - ()
Month to date snowfall 0.0 0.0  
Since 1 July snowfall 0.0 0.0  
Since 1 September snowfall 0.0 0.0  
Snow Depth 0.00 in    
Sea Level Pressure  
Sea Level Pressure 29.41 in    
Wind  
Wind Speed 17 mph ()    
Max Wind Speed 37 mph    
Max Gust Speed 53 mph    
Visibility 7.4 miles    
Events Rain , Thunderstorm    
T = Trace of Precipitation, MM = Missing Value Source: Averaged Metar Reports

Daily Weather History Graph

Daily Weather History Graph

Search for Another Location

Airport or City:

Astronomy

Oct. 21, 2019 Rise Set
Actual Time 7:22 AM CDT 6:11 PM CDT
Civil Twilight 6:53 AM CDT 6:40 PM CDT
Nautical Twilight 6:21 AM CDT 7:12 PM CDT
Astronomical Twilight 5:48 AM CDT 7:45 PM CDT
Moon No Moon Rise 2:44 PM CDT (10/21)
Length of Visible Light 11h 46m
Length of Day
10h 49m
Waning Gibbous, 48% of the Moon is Illuminated
Oct 21
Waning Gibbous
Oct 27
New
Nov 4
First Quarter
Nov 12
Full
Nov 19
Last Quarter

Hourly Weather History & Observations

Time (CDT) Temp. Windchill Dew Point Humidity Pressure Visibility Wind Dir Wind Speed Gust Speed Precip Events Conditions
12:53 AM 51.1 °F - 44.1 °F 77% 29.74 in 10.0 mi ESE 11.5 mph - N/A   Clear
1:53 AM 51.1 °F - 46.0 °F 83% 29.71 in 8.0 mi ESE 12.7 mph - N/A   Mostly Cloudy
2:53 AM 52.0 °F - 46.9 °F 83% 29.69 in 6.0 mi ESE 11.5 mph 24.2 mph N/A   Haze
3:53 AM 53.1 °F - 48.0 °F 83% 29.62 in 7.0 mi East 15.0 mph - N/A   Mostly Cloudy
4:53 AM 53.1 °F - 48.0 °F 83% 29.56 in 5.0 mi East 17.3 mph 25.3 mph 0.00 in Rain Light Rain
5:40 AM 54.0 °F - 48.9 °F 83% 29.52 in 8.0 mi ESE 18.4 mph 29.9 mph 0.00 in Rain , Thunderstorm Light Rain
5:53 AM 53.1 °F - 48.9 °F 86% 29.52 in 6.0 mi ESE 20.7 mph 32.2 mph 0.00 in Rain , Thunderstorm Light Thunderstorms and Rain
6:16 AM 53.1 °F - 50.0 °F 89% 29.51 in 2.5 mi SE 19.6 mph 32.2 mph 0.05 in Rain , Thunderstorm Thunderstorms and Rain
6:26 AM 53.1 °F - 50.0 °F 89% 29.50 in 2.5 mi ESE 18.4 mph 28.8 mph 0.08 in Rain , Thunderstorm Heavy Rain
6:35 AM 52.0 °F - 50.0 °F 93% 29.48 in 2.0 mi ESE 17.3 mph 25.3 mph 0.12 in Rain , Thunderstorm Heavy Thunderstorms and Rain
6:46 AM 52.0 °F - 50.0 °F 93% 29.46 in 2.5 mi ESE 16.1 mph 26.5 mph 0.17 in Rain , Thunderstorm Rain
6:53 AM 53.1 °F - 50.0 °F 89% 29.44 in 3.0 mi ESE 17.3 mph 27.6 mph 0.19 in Rain , Thunderstorm Rain
6:57 AM 53.1 °F - 50.0 °F 89% 29.43 in 3.0 mi ESE 18.4 mph 27.6 mph 0.01 in Rain Rain
7:53 AM 53.1 °F - 51.1 °F 93% 29.39 in 6.0 mi ESE 13.8 mph 23.0 mph 0.06 in Rain Light Rain
8:09 AM 53.1 °F - 51.1 °F 93% 29.37 in 6.0 mi ESE 16.1 mph 24.2 mph 0.00 in Rain Light Rain
8:32 AM 54.0 °F - 52.0 °F 93% 29.36 in 7.0 mi SE 17.3 mph 26.5 mph 0.00 in Rain Light Rain
8:53 AM 55.0 °F - 52.0 °F 89% 29.36 in 7.0 mi SE 23.0 mph 35.7 mph 0.00 in Rain Light Rain
9:53 AM 55.9 °F - 54.0 °F 93% 29.30 in 2.0 mi SE 21.9 mph 34.5 mph 0.01 in Rain Rain
10:00 AM 55.4 °F - 53.6 °F 94% 29.29 in 1.0 mi SSE 18.4 mph 36.8 mph N/A Rain Heavy Rain
10:09 AM 55.9 °F - 55.0 °F 97% 29.30 in 3.0 mi South 20.7 mph 32.2 mph 0.13 in Rain Rain
10:53 AM 57.9 °F - 55.0 °F 90% 29.28 in 10.0 mi South 23.0 mph 36.8 mph 0.14 in Rain Light Rain
11:38 AM 59.0 °F - 55.0 °F 87% 29.30 in 10.0 mi SSW 17.3 mph 28.8 mph 0.01 in Rain Light Rain
11:53 AM 59.0 °F - 54.0 °F 83% 29.29 in 10.0 mi SW 23.0 mph 29.9 mph 0.01 in Rain Light Rain
12:14 PM 59.0 °F - 52.0 °F 78% 29.29 in 10.0 mi SW 24.2 mph 33.4 mph 0.00 in Rain Light Rain
12:28 PM 59.0 °F - 51.1 °F 75% 29.29 in 10.0 mi SW 19.6 mph 31.1 mph 0.00 in Rain Light Rain
12:53 PM 60.1 °F - 48.9 °F 67% 29.29 in 10.0 mi SSW 28.8 mph 40.3 mph 0.00 in Rain Light Rain
1:53 PM 60.1 °F - 43.0 °F 53% 29.29 in 10.0 mi SSW 27.6 mph 38.0 mph 0.00 in   Partly Cloudy
2:53 PM 57.9 °F - 42.1 °F 56% 29.31 in 10.0 mi SSW 28.8 mph 39.1 mph 0.00 in   Mostly Cloudy
3:53 PM 54.0 °F - 41.0 °F 62% 29.35 in 10.0 mi SW 18.4 mph 29.9 mph N/A   Overcast
4:53 PM 52.0 °F - 41.0 °F 66% 29.38 in 10.0 mi SSW 20.7 mph 33.4 mph N/A   Overcast
5:53 PM 50.0 °F - 39.0 °F 66% 29.41 in 10.0 mi SSW 21.9 mph 34.5 mph N/A   Overcast
6:53 PM 50.0 °F - 37.9 °F 63% 29.42 in 10.0 mi SSW 24.2 mph 31.1 mph N/A   Overcast
7:53 PM 48.9 °F - 39.0 °F 69% 29.43 in 10.0 mi SSW 20.7 mph 34.5 mph N/A   Overcast
8:53 PM 48.9 °F - 39.9 °F 71% 29.40 in 10.0 mi SSW 24.2 mph 33.4 mph 0.00 in Rain Light Rain
9:53 PM 48.9 °F - 39.9 °F 71% 29.38 in 10.0 mi SSW 25.3 mph 35.7 mph 0.00 in Rain Light Rain
10:27 PM 48.9 °F - 41.0 °F 74% 29.35 in 10.0 mi SSW 25.3 mph 34.5 mph 0.00 in Rain Light Rain
10:53 PM 46.9 °F - 41.0 °F 80% 29.37 in 5.0 mi SW 32.2 mph 52.9 mph 0.00 in Rain Rain
11:15 PM 46.0 °F 38.3 °F 41.0 °F 83% 29.37 in 10.0 mi SW 20.7 mph 32.2 mph 0.01 in Rain Light Rain
11:32 PM 45.0 °F 36.6 °F 39.9 °F 82% 29.37 in 10.0 mi SW 21.9 mph 36.8 mph 0.01 in Rain Light Rain
11:45 PM 45.0 °F 36.2 °F 39.9 °F 82% 29.37 in 10.0 mi SW 24.2 mph 33.4 mph 0.01 in Rain Light Rain
11:53 PM 45.0 °F 36.6 °F 39.9 °F 82% 29.37 in 10.0 mi SW 21.9 mph 33.4 mph 0.01 in Rain Light Rain